Погода в Степанове

Россия / Удмуртская Республика     57°01′21″N   54°21′59″E
темп.,
°C
ветер,
м/с
пор.,
м/с
влажн.,
%
обл.,
%
осадки,
мм/ч
давл.,
гПа
погр.,
м
11 мая, вт
вт1101:00+14з1156100 0.0 102311
04:00+13юв1161100 0.0 102410
07:00+16ссв1158100 0.0 1025113
10:00+21св1145100 0.0 1026535
13:00+25сз123419 0.0 10261581
16:00+24ссз224089 0.0 1026975
19:00+21ссз245575 0.0 1027108
22:00+18св256853 0.4 1028101
12 мая, ср
ср1201:00+16ссв237639 0.0 102873
04:00+13св24875 0.0 102979
07:00+17св34710 0.0 1030311
10:00+21всв22533 0.0 1029897
13:00+25всв12400 0.0 10282009
16:00+25с333795 0.0 10272190
19:00+22св225242 0.0 102745
22:00+18всв226123 0.0 102820
13 мая, чт
чт1301:00+16в116619 0.0 102812
04:00+15всв116911 0.0 102812
07:00+19в12550 0.0 1028182
10:00+24в22405 0.0 1028963
13:00+27вюв12316 0.0 10272630
16:00+28зюз222937 0.0 10262659
19:00+23зюз25456 0.0 1026179
22:00+18ююз115248 0.0 102611
14 мая, пт
пт1401:00+16ю11556 0.0 102611
04:00+15ююв11574 0.0 102611
07:00+19ю244946 0.0 1026210
10:00+25ююз3534100 0.0 10251147
13:00+28ююз452621 0.0 10242039
16:00+28юз562632 0.0 10231991
19:00+24ююз37395 0.0 1022230
22:00+19ю3559100 0.0 102270
15 мая, сб
сб1501:00+17ююз266555 0.0 1022110
04:00+15ююз236986 0.0 102244
07:00+19юз36625 0.2 1022213
10:00+25юз583073 0.2 1022985
13:00+28юз682570 0.0 10211486
16:00+28зюз572816 0.0 10201560
19:00+25юз49395 0.0 1020433
22:00+19юз310565 0.0 1019177